QPF
0.00 0.00 0.00 0.00 0.00 0.00 0.01 0.01 0.00 0.00 0.01 0.00 0.00 0.00 0.00 0.00 0.00 0.00 0.00 0.00 0.00 0.00 0.00 0.00 0.00 0.00 0.00 0.00 0.00 0.00 0.00 0.00 0.00 0.00 0.00 0.00 0.00 0.00 0.00 0.00 0.00 0.00
0.00 0.00 0.00 0.00 0.00 0.00 0.01 0.00 0.01 0.00 0.01 0.01 0.00 0.00 0.00 0.00 0.00 0.00 0.00 0.00 0.00 0.00 0.00 0.00 0.00 0.00 0.00 0.00 0.00 0.01 0.01 0.00 0.00 0.00 0.00 0.00 0.00 0.00 0.00 0.00 0.00 0.00
0.00 0.00 0.00 0.00 0.00 0.00 0.00 0.00 0.00 0.01 0.00 0.00 0.00 0.00 0.00 0.00 0.00 0.00 0.00 0.00 0.00 0.00 0.00 0.00 0.01 0.00 0.01 0.01 0.01 0.00 0.00 0.00 0.00 0.00 0.00 0.00 0.00 0.00 0.00 0.00 0.00 0.00
0.00 0.00 0.00 0.00 0.00 0.00 0.00 0.00 0.00 0.00 0.00 0.00 0.00 0.00 0.00 0.00 0.00 0.00 0.00 0.00 0.00 0.00 0.01 0.00 0.01 0.00 0.00 0.01 0.01 0.00 0.00 0.00 0.00 0.00 0.00 0.00 0.00 0.00 0.00 0.00 0.00 0.00
0.00 0.00 0.00 0.00 0.00 0.00 0.00 0.00 0.00 0.00 0.00 0.00 0.00 0.00 0.00 0.00 0.00 0.00 0.00 0.00 0.00 0.00 0.00 0.01 0.00 0.00 0.00 0.00 0.00 0.00 0.00 0.00 0.00 0.00 0.00 0.01 0.00 0.00 0.00 0.00 0.00 0.00
0.00 0.00 0.00 0.00 0.00 0.00 0.00 0.00 0.00 0.00 0.00 0.00 0.00 0.00 0.00 0.00 0.00 0.00 0.00 0.00 0.00 0.00 0.00 0.00 0.00 0.00 0.00 0.00 0.00 0.00 0.00 0.00 0.00 0.00 0.00 0.00 0.00 0.00 0.00 0.00 0.00 0.00
0.00 0.00 0.00 0.00 0.00 0.00 0.00 0.00 0.00 0.00 0.00 0.00 0.00 0.00 0.00 0.00 0.00 0.00 0.00 0.00 0.00 0.00 0.00 0.00 0.00 0.00 0.00 0.00 0.00 0.01 0.00 0.00 0.00 0.00 0.00 0.00 0.00 0.00 0.00 0.00 0.00 0.00
0.00 0.00 0.00 0.00 0.00 0.00 0.00 0.00 0.00 0.00 0.00 0.00 0.00 0.00 0.00 0.00 0.00 0.00 0.00 0.00 0.00 0.00 0.00 0.00 0.00 0.00 0.00 0.00 0.00 0.00 0.00 0.00 0.00 0.00 0.00 0.00 0.00 0.00 0.00 0.00 0.00 0.00
0.00 0.00 0.00 0.00 0.00 0.00 0.00 0.00 0.00 0.00 0.00 0.00 0.00 0.00 0.00 0.00 0.00 0.00 0.00 0.00 0.00 0.00 0.00 0.00 0.00 0.00 0.00 0.00 0.00 0.00 0.00 0.00 0.00 0.00 0.00 0.00 0.00 0.00 0.00 0.00 0.00 0.00
0.00 0.00 0.00 0.00 0.00 0.00 0.00 0.00 0.00 0.00 0.00 0.00 0.00 0.00 0.00 0.00 0.00 0.00 0.00 0.01 0.01 0.01 0.01 0.00 0.00 0.00 0.00 0.00 0.00 0.00 0.00 0.00 0.00 0.00 0.00 0.00 0.00 0.00 0.00 0.00 0.00 0.00
0.00 0.00 0.00 0.00 0.00 0.00 0.00 0.00 0.00 0.00 0.00 0.00 0.00 0.00 0.00 0.00 0.00 0.00 0.00 0.01 0.00 0.00 0.00 0.00 0.00 0.00 0.00 0.00 0.00 0.00 0.00 0.00 0.00 0.00 0.00 0.00 0.00 0.00 0.00 0.00 0.00 0.00
0.00 0.00 0.00 0.00 0.00 0.00 0.00 0.00 0.00 0.00 0.00 0.00 0.00 0.00 0.00 0.00 0.00 0.00 0.00 0.00 0.00 0.00 0.00 0.00 0.00 0.00 0.00 0.00 0.00 0.00 0.00 0.00 0.00 0.00 0.00 0.00 0.00 0.00 0.00 0.00 0.00 0.00
0.00 0.00 0.00 0.00 0.00 0.00 0.00 0.00 0.00 0.00 0.00 0.00 0.00 0.00 0.00 0.00 0.00 0.00 0.00 0.00 0.00 0.00 0.00 0.00 0.00 0.00 0.00 0.00 0.00 0.00 0.00 0.00 0.00 0.00 0.00 0.00 0.00 0.00 0.00 0.00 0.00 0.00
0.00 0.00 0.00 0.00 0.00 0.00 0.00 0.00 0.00 0.00 0.00 0.00 0.00 0.00 0.00 0.00 0.00 0.00 0.00 0.00 0.00 0.00 0.00 0.00 0.00 0.00 0.00 0.00 0.00 0.00 0.00 0.00 0.00 0.00 0.00 0.00 0.00 0.00 0.00 0.00 0.00 0.00
0.02 0.01 0.00 0.00 0.00 0.00 0.00 0.00 0.00 0.00 0.00 0.00 0.00 0.00 0.00 0.00 0.00 0.00 0.00 0.00 0.00 0.00 0.00 0.00 0.00 0.00 0.00 0.00 0.00 0.00 0.00 0.00 0.00 0.00 0.00 0.00 0.00 0.00 0.00 0.00 0.00 0.00
0.00 0.01 0.02 0.01 0.00 0.00 0.00 0.00 0.00 0.00 0.00 0.00 0.00 0.00 0.00 0.00 0.00 0.00 0.00 0.00 0.00 0.00 0.00 0.00 0.00 0.00 0.00 0.00 0.00 0.00 0.00 0.00 0.00 0.00 0.00 0.00 0.00 0.00 0.00 0.00 0.00 0.00
0.06 0.04 0.02 0.06 0.02 0.01 0.00 0.00 0.00 0.00 0.00 0.00 0.00 0.00 0.00 0.00 0.00 0.00 0.00 0.00 0.00 0.00 0.00 0.00 0.00 0.00 0.00 0.00 0.00 0.00 0.00 0.00 0.00 0.00 0.00 0.00 0.00 0.00 0.00 0.00 0.00 0.00
0.07 0.06 0.08 0.05 0.01 0.02 0.02 0.00 0.00 0.01 0.00 0.00 0.00 0.00 0.00 0.00 0.00 0.00 0.00 0.00 0.00 0.00 0.00 0.00 0.00 0.00 0.00 0.00 0.00 0.00 0.00 0.00 0.00 0.00 0.00 0.00 0.00 0.00 0.00 0.00 0.00 0.00
0.06 0.08 0.09 0.11 0.12 0.08 0.05 0.06 0.01 0.00 0.00 0.00 0.00 0.00 0.00 0.00 0.00 0.00 0.00 0.00 0.00 0.00 0.00 0.00 0.01 0.00 0.00 0.00 0.00 0.00 0.00 0.00 0.00 0.00 0.00 0.00 0.00 0.00 0.00 0.00 0.00 0.00
0.11 0.09 0.09 0.11 0.13 0.14 0.11 0.08 0.05 0.02 0.00 0.00 0.00 0.01 0.01 0.00 0.00 0.00 0.00 0.00 0.00 0.00 0.00 0.00 0.01 0.00 0.00 0.00 0.00 0.00 0.00 0.00 0.00 0.00 0.00 0.00 0.00 0.00 0.00 0.00 0.00 0.00
0.16 0.14 0.09 0.10 0.11 0.14 0.17 0.12 0.07 0.05 0.04 0.02 0.00 0.00 0.00 0.00 0.00 0.03 0.00 0.00 0.02 0.00 0.01 0.00 0.00 0.00 0.00 0.00 0.00 0.00 0.00 0.00 0.00 0.00 0.00 0.00 0.00 0.00 0.00 0.00 0.00 0.00
0.30 0.18 0.12 0.12 0.11 0.13 0.17 0.55 0.24 0.15 0.08 0.04 0.02 0.01 0.01 0.00 0.00 0.00 0.00 0.00 0.00 0.00 0.00 0.00 0.00 0.00 0.00 0.00 0.00 0.00 0.00 0.00 0.00 0.00 0.00 0.00 0.00 0.00 0.00 0.00 0.00 0.00
0.32 0.29 0.44 0.24 0.19 0.17 0.20 0.33 0.50 0.44 0.34 0.20 0.12 0.04 0.00 0.00 0.01 0.01 0.00 0.01 0.00 0.00 0.00 0.00 0.00 0.00 0.00 0.00 0.00 0.00 0.00 0.00 0.00 0.00 0.00 0.00 0.00 0.00 0.00 0.00 0.00 0.00
0.16 0.17 0.23 0.20 0.23 0.20 0.18 0.30 0.43 0.55 0.34 0.29 0.26 0.17 0.11 0.15 0.07 0.08 0.03 0.03 0.06 0.02 0.07 0.00 0.00 0.00 0.00 0.00 0.00 0.00 0.00 0.00 0.00 0.00 0.00 0.00 0.00 0.00 0.00 0.00 0.00 0.00
0.07 0.09 0.28 0.56 0.21 0.28 0.30 0.28 0.40 0.41 0.45 0.37 0.33 0.31 0.28 0.25 0.12 0.08 0.27 0.43 0.76 0.70 0.01 0.00 0.00 0.00 0.00 0.00 0.00 0.00 0.00 0.00 0.00 0.00 0.00 0.00 0.00 0.00 0.00 0.00 0.03 0.00
0.14 0.02 0.02 0.03 0.05 0.10 0.88 0.53 0.38 0.40 0.31 0.33 0.39 0.44 0.43 0.39 0.29 0.28 0.20 0.51 0.30 0.02 0.02 0.00 0.00 0.00 0.00 0.00 0.01 0.00 0.00 0.00 0.01 0.01 0.01 0.01 0.01 0.01 0.01 0.01 0.03 0.03
MSLP
1020.07 1020.15 1020.39 1020.59 1020.63 1020.63 1020.79 1021.03 1020.83 1020.99 1021.15 1020.95 1021.07 1021.11 1021.27 1021.15 1021.07 1021.19 1021.27 1021.39 1021.55 1021.63 1021.71 1021.79 1021.79 1021.87 1021.79 1021.83 1021.87 1021.95 1022.03 1021.99 1021.79 1021.83 1021.99 1021.99 1022.03 1022.07 1022.11 1022.15 1022.19 1022.15
1019.99 1020.07 1020.15 1020.23 1020.43 1020.55 1020.63 1020.63 1020.79 1020.87 1021.03 1021.07 1020.83 1020.83 1020.87 1020.95 1021.03 1021.11 1021.31 1021.43 1021.47 1021.55 1021.59 1021.67 1021.71 1021.75 1021.79 1021.71 1021.87 1021.99 1022.11 1022.03 1022.15 1021.51 1022.07 1022.19 1022.11 1021.95 1022.07 1022.03 1022.07 1021.95
1019.83 1019.99 1020.19 1020.35 1020.27 1020.39 1020.27 1020.31 1020.51 1020.67 1020.67 1020.59 1020.59 1020.71 1020.75 1020.71 1020.91 1020.99 1021.07 1021.23 1021.35 1021.23 1021.47 1021.55 1021.63 1021.71 1021.75 1021.79 1021.87 1021.95 1021.99 1022.19 1022.19 1021.63 1021.91 1022.23 1021.95 1022.03 1021.87 1021.59 1021.63 1021.83
1019.75 1019.79 1019.83 1019.87 1019.79 1019.91 1019.91 1020.11 1020.39 1020.55 1020.35 1020.63 1020.63 1020.35 1020.43 1020.27 1020.63 1020.91 1021.03 1021.19 1021.27 1021.43 1021.39 1021.43 1021.55 1021.51 1021.67 1021.75 1021.87 1021.91 1021.87 1021.99 1021.83 1021.79 1022.03 1021.99 1021.95 1021.87 1021.83 1021.67 1021.59 1021.59
1019.47 1019.67 1019.67 1019.63 1019.55 1019.55 1019.67 1019.95 1020.07 1020.15 1020.27 1020.27 1020.23 1020.27 1020.51 1020.67 1020.75 1020.75 1020.91 1021.07 1021.15 1021.27 1021.31 1021.47 1021.47 1021.51 1021.59 1021.71 1021.79 1021.99 1021.87 1021.95 1021.79 1021.91 1022.15 1022.27 1022.03 1021.95 1021.79 1021.71 1021.95 1022.07
1019.15 1019.27 1019.43 1019.59 1019.63 1019.67 1019.75 1019.83 1019.95 1019.91 1019.99 1020.11 1020.27 1020.03 1020.19 1020.47 1020.55 1020.55 1020.67 1020.79 1020.75 1020.83 1020.91 1021.03 1021.27 1021.23 1021.31 1021.59 1021.71 1021.83 1021.71 1021.67 1021.47 1021.87 1022.19 1022.27 1022.03 1021.63 1021.51 1021.71 1022.03 1022.19
1018.91 1019.11 1019.31 1019.27 1019.43 1019.47 1019.71 1019.67 1019.67 1019.71 1019.71 1019.67 1019.79 1020.11 1019.99 1020.27 1020.43 1020.43 1020.51 1020.55 1020.51 1020.59 1020.67 1020.87 1021.11 1021.19 1021.11 1021.31 1021.63 1021.83 1021.83 1021.87 1021.79 1021.91 1022.23 1022.07 1022.03 1022.03 1021.67 1021.79 1022.07 1022.23
1018.55 1018.51 1018.75 1018.99 1019.23 1019.23 1019.47 1019.47 1019.55 1019.63 1019.63 1019.67 1019.87 1019.95 1019.95 1020.07 1020.23 1020.15 1020.27 1020.39 1020.47 1020.59 1020.67 1020.71 1020.95 1021.19 1021.03 1021.07 1021.43 1021.67 1021.75 1021.43 1021.67 1021.95 1022.15 1022.23 1022.07 1022.23 1022.07 1021.87 1021.99 1022.23
1018.27 1018.35 1018.47 1018.79 1018.95 1018.95 1019.07 1019.03 1019.19 1019.35 1019.31 1019.67 1019.71 1019.51 1019.63 1019.79 1019.95 1019.99 1020.19 1020.31 1020.39 1020.47 1020.67 1020.75 1020.91 1020.95 1020.87 1020.95 1021.15 1021.43 1021.59 1021.39 1021.19 1021.55 1021.87 1022.03 1022.07 1022.11 1021.99 1021.79 1021.99 1022.11
1018.31 1018.31 1018.31 1018.47 1018.75 1018.71 1018.79 1018.67 1018.55 1018.79 1018.95 1019.27 1019.35 1019.19 1019.35 1019.55 1019.71 1019.83 1020.11 1020.43 1020.51 1020.55 1020.63 1020.67 1020.75 1020.75 1020.75 1020.75 1021.03 1021.15 1021.27 1021.39 1021.35 1021.43 1021.51 1021.63 1021.75 1021.75 1021.71 1021.75 1021.87 1022.03
1018.15 1018.19 1018.35 1018.43 1018.47 1018.31 1018.43 1018.39 1018.35 1018.39 1018.55 1018.91 1018.99 1019.07 1019.03 1019.19 1019.59 1019.71 1020.07 1020.39 1020.43 1020.51 1020.55 1020.55 1020.55 1020.59 1020.75 1020.67 1020.55 1020.55 1020.79 1020.91 1020.99 1021.11 1021.27 1021.39 1021.39 1021.47 1021.51 1021.63 1021.71 1021.75
1018.03 1018.03 1018.11 1018.19 1018.27 1018.23 1018.15 1018.11 1018.15 1018.23 1018.35 1018.55 1018.67 1018.95 1018.95 1018.95 1019.31 1019.55 1019.79 1020.19 1020.19 1020.15 1020.19 1020.27 1020.27 1020.31 1020.47 1020.55 1020.43 1020.31 1020.47 1020.55 1020.63 1020.83 1020.91 1021.03 1021.03 1021.03 1021.11 1021.11 1021.23 1021.35
1018.19 1018.07 1017.99 1018.07 1018.15 1018.11 1017.91 1017.95 1018.11 1018.11 1018.23 1018.39 1018.47 1018.67 1018.87 1018.95 1018.99 1019.35 1019.43 1019.71 1019.95 1019.91 1019.91 1019.99 1020.07 1020.07 1020.19 1020.31 1020.31 1020.27 1020.35 1020.55 1020.55 1020.59 1020.67 1020.71 1020.67 1020.67 1020.55 1020.59 1020.71 1020.83
1018.03 1017.91 1017.95 1017.95 1017.87 1017.95 1018.07 1017.99 1017.95 1018.03 1018.11 1018.19 1018.27 1018.59 1018.75 1018.71 1018.79 1018.99 1019.19 1019.35 1019.51 1019.63 1019.59 1019.59 1019.83 1019.91 1019.99 1020.11 1020.11 1020.15 1020.31 1020.43 1020.55 1020.59 1020.55 1020.51 1020.43 1020.43 1020.31 1020.27 1020.31 1020.35
1017.87 1017.87 1017.83 1017.95 1017.99 1018.11 1018.15 1018.15 1018.11 1018.15 1018.15 1018.27 1018.47 1018.55 1018.39 1018.43 1018.39 1018.55 1018.87 1019.11 1019.11 1019.27 1019.35 1019.31 1019.39 1019.59 1019.51 1019.71 1019.99 1020.19 1020.11 1020.27 1020.35 1020.43 1020.51 1020.55 1020.55 1020.35 1020.19 1020.23 1020.19 1020.07
1017.67 1017.83 1017.99 1017.99 1018.11 1018.27 1018.31 1018.27 1018.19 1018.23 1018.23 1018.43 1018.47 1018.55 1018.55 1018.47 1018.47 1018.47 1018.59 1018.83 1019.07 1019.19 1019.23 1019.19 1019.15 1018.95 1019.07 1019.43 1019.63 1019.67 1019.87 1019.87 1019.95 1020.15 1020.27 1020.31 1020.51 1020.51 1020.31 1020.07 1019.95 1019.79
1017.79 1017.79 1017.83 1018.15 1018.15 1018.19 1018.23 1018.39 1018.43 1018.27 1018.35 1018.51 1018.59 1018.59 1018.67 1018.63 1018.75 1018.79 1018.67 1018.55 1018.67 1018.87 1019.07 1018.99 1018.75 1018.55 1018.99 1019.47 1019.75 1019.91 1019.87 1019.87 1020.07 1020.15 1020.19 1020.35 1020.35 1020.51 1020.63 1020.27 1019.83 1019.63
1018.03 1018.27 1018.51 1018.39 1018.19 1018.27 1018.31 1018.39 1018.39 1018.51 1018.63 1018.63 1018.67 1018.67 1018.75 1018.67 1018.75 1018.87 1018.79 1018.59 1018.47 1018.47 1018.59 1018.59 1018.47 1018.43 1018.99 1019.35 1019.63 1019.87 1020.07 1019.95 1019.75 1019.83 1019.83 1019.91 1019.99 1020.07 1020.03 1019.99 1019.95 1019.71
1018.31 1018.39 1018.55 1018.67 1018.71 1018.59 1018.51 1018.55 1018.67 1018.83 1018.91 1018.87 1018.83 1018.59 1018.55 1018.87 1018.87 1018.75 1018.79 1018.71 1018.55 1018.63 1018.51 1018.27 1018.59 1019.83 1019.27 1019.51 1019.79 1020.03 1020.23 1020.31 1019.87 1019.67 1019.67 1019.63 1019.59 1019.75 1019.79 1019.87 1019.87 1019.95
1018.23 1018.39 1018.59 1018.67 1018.75 1018.95 1019.07 1019.07 1019.15 1019.15 1019.11 1018.99 1018.87 1018.67 1018.87 1018.95 1018.75 1018.75 1018.71 1018.79 1018.67 1018.67 1018.63 1018.39 1019.15 1019.79 1019.75 1019.79 1019.95 1020.11 1020.19 1020.31 1019.87 1019.71 1019.55 1019.51 1019.55 1019.55 1019.51 1019.59 1019.79 1019.95
1018.07 1018.19 1018.39 1018.63 1018.71 1018.91 1019.15 1019.27 1019.31 1019.31 1019.27 1019.19 1019.11 1018.99 1018.95 1019.07 1018.91 1018.83 1018.67 1018.63 1018.55 1018.43 1018.67 1018.79 1019.71 1020.27 1019.95 1019.91 1019.95 1020.11 1020.19 1020.23 1019.71 1019.51 1019.35 1019.31 1019.27 1019.35 1019.51 1019.59 1019.59 1019.71
1018.55 1018.35 1018.27 1018.39 1018.55 1018.75 1019.07 1019.23 1019.23 1019.31 1019.43 1019.31 1019.31 1019.11 1018.95 1018.63 1018.67 1018.39 1018.47 1018.51 1018.31 1018.23 1018.43 1019.39 1020.11 1020.51 1020.47 1020.43 1020.23 1019.99 1020.11 1019.91 1019.55 1019.63 1019.55 1019.31 1019.19 1019.27 1019.35 1019.43 1019.51 1019.63
1018.95 1018.87 1018.95 1018.91 1018.71 1018.75 1018.99 1019.15 1019.27 1019.35 1019.35 1019.27 1019.51 1019.39 1019.23 1019.19 1018.95 1018.67 1018.39 1018.51 1018.67 1018.63 1018.75 1019.67 1020.27 1020.83 1020.75 1020.63 1020.47 1020.35 1019.99 1019.35 1019.19 1019.27 1019.39 1019.43 1019.31 1019.27 1019.47 1019.51 1019.51 1019.63
1019.19 1019.19 1019.27 1019.23 1019.27 1019.43 1019.23 1018.91 1018.83 1018.99 1019.15 1019.23 1019.39 1019.35 1019.39 1019.23 1019.19 1019.51 1019.19 1019.19 1019.27 1019.27 1019.75 1020.15 1020.47 1020.95 1020.87 1020.67 1020.55 1020.39 1020.03 1019.23 1019.15 1019.31 1019.47 1019.51 1019.47 1019.51 1019.39 1019.47 1019.75 1020.15
1019.43 1019.43 1019.55 1019.63 1019.67 1019.67 1019.55 1019.51 1019.35 1019.23 1019.27 1019.27 1019.27 1019.23 1019.35 1019.39 1019.59 1019.91 1020.63 1020.55 1020.47 1020.55 1020.31 1020.23 1020.47 1020.91 1021.03 1020.87 1020.71 1020.51 1020.15 1019.55 1019.23 1019.27 1019.59 1019.59 1019.47 1019.55 1019.39 1019.35 1020.07 1020.23
1019.43 1019.59 1019.59 1019.67 1019.71 1019.83 1019.79 1019.83 1019.79 1019.71 1019.67 1019.63 1019.55 1019.55 1019.71 1019.87 1019.79 1019.99 1020.43 1020.79 1020.83 1020.99 1020.75 1020.63 1020.91 1021.15 1021.31 1021.11 1020.99 1020.67 1020.47 1020.03 1019.67 1019.87 1019.79 1019.75 1019.63 1019.75 1019.91 1019.67 1019.95 1020.79
Thickness
5779 5779 5778 5778 5778 5778 5778 5778 5778 5778 5778 5779 5780 5780 5781 5781 5782 5782 5781 5781 5780 5780 5780 5780 5780 5780 5782 5782 5782 5783 5784 5785 5785 5785 5785 5784 5784 5785 5784 5785 5785 5785
5778 5779 5778 5778 5778 5778 5779 5779 5779 5779 5779 5779 5781 5782 5782 5782 5782 5782 5781 5781 5781 5781 5781 5781 5781 5781 5782 5783 5783 5783 5784 5783 5785 5786 5785 5784 5785 5786 5785 5786 5786 5786
5778 5779 5778 5778 5779 5779 5780 5781 5780 5780 5780 5781 5782 5782 5783 5783 5783 5782 5781 5781 5782 5782 5782 5782 5782 5782 5782 5783 5783 5783 5784 5783 5783 5787 5786 5784 5785 5786 5786 5788 5788 5788
5778 5779 5779 5780 5782 5782 5782 5782 5781 5781 5782 5782 5783 5784 5784 5784 5783 5782 5782 5782 5781 5782 5782 5782 5782 5782 5782 5782 5782 5783 5784 5783 5784 5786 5784 5784 5786 5785 5787 5789 5789 5789
5779 5780 5780 5781 5782 5782 5783 5782 5781 5782 5782 5782 5783 5784 5783 5783 5783 5783 5783 5782 5783 5783 5784 5783 5782 5783 5782 5783 5783 5783 5784 5784 5786 5785 5783 5783 5785 5786 5788 5789 5787 5787
5780 5780 5780 5780 5781 5781 5781 5781 5782 5783 5783 5783 5784 5784 5784 5783 5783 5784 5784 5784 5785 5785 5785 5785 5784 5784 5784 5783 5783 5782 5783 5784 5786 5785 5782 5782 5785 5787 5789 5788 5786 5785
5781 5781 5780 5780 5781 5780 5780 5781 5782 5782 5783 5784 5784 5784 5784 5784 5783 5784 5785 5785 5785 5786 5786 5786 5785 5785 5785 5785 5783 5782 5782 5783 5783 5783 5781 5782 5783 5784 5787 5787 5786 5784
5783 5783 5782 5782 5782 5781 5781 5781 5781 5782 5783 5783 5783 5783 5784 5783 5784 5784 5785 5785 5785 5785 5785 5785 5785 5785 5785 5785 5784 5782 5782 5784 5784 5782 5780 5781 5782 5782 5784 5786 5785 5784
5782 5784 5784 5782 5782 5782 5782 5783 5783 5784 5783 5782 5783 5785 5785 5784 5784 5785 5784 5784 5784 5784 5784 5785 5785 5784 5786 5786 5784 5783 5783 5784 5785 5783 5781 5781 5781 5781 5783 5785 5784 5783
5780 5782 5783 5782 5782 5783 5783 5785 5786 5786 5785 5784 5784 5786 5786 5785 5784 5784 5783 5782 5782 5783 5783 5784 5784 5785 5785 5786 5786 5785 5784 5784 5785 5784 5783 5782 5782 5783 5784 5784 5783 5783
5779 5780 5780 5781 5782 5783 5784 5786 5787 5788 5787 5786 5786 5786 5787 5787 5785 5784 5782 5781 5781 5782 5783 5783 5785 5785 5785 5786 5787 5787 5786 5786 5786 5785 5785 5784 5784 5784 5784 5784 5783 5783
5778 5779 5780 5780 5781 5782 5785 5786 5787 5788 5787 5787 5787 5786 5787 5788 5787 5785 5783 5782 5782 5783 5784 5783 5785 5785 5785 5785 5787 5788 5787 5787 5787 5787 5786 5786 5786 5786 5786 5785 5785 5784
5777 5779 5779 5780 5780 5782 5783 5785 5786 5786 5786 5786 5787 5786 5786 5787 5787 5786 5785 5784 5783 5784 5784 5784 5785 5785 5785 5785 5786 5787 5787 5786 5787 5787 5787 5787 5787 5788 5788 5788 5788 5787
5777 5778 5779 5779 5780 5780 5781 5783 5784 5784 5785 5785 5785 5785 5785 5786 5787 5786 5785 5785 5784 5784 5785 5785 5785 5784 5785 5785 5785 5786 5785 5784 5785 5785 5785 5786 5787 5788 5789 5789 5789 5790
5776 5777 5777 5777 5778 5778 5778 5779 5781 5782 5782 5783 5782 5783 5784 5785 5786 5786 5785 5784 5784 5784 5785 5786 5786 5785 5786 5785 5784 5785 5785 5784 5784 5784 5784 5784 5785 5786 5788 5789 5790 5791
5775 5775 5776 5775 5776 5776 5776 5777 5778 5779 5780 5779 5780 5781 5782 5782 5783 5783 5783 5782 5782 5782 5783 5784 5785 5787 5787 5785 5784 5784 5784 5784 5784 5784 5783 5782 5782 5783 5785 5787 5790 5791
5772 5773 5772 5773 5773 5774 5774 5775 5775 5776 5777 5776 5777 5778 5778 5779 5778 5779 5780 5781 5781 5781 5781 5782 5784 5787 5785 5782 5782 5782 5782 5783 5782 5781 5782 5781 5781 5781 5782 5785 5788 5790
5767 5767 5767 5768 5769 5770 5770 5771 5772 5772 5772 5772 5773 5774 5775 5775 5775 5775 5776 5778 5780 5780 5780 5782 5784 5784 5783 5781 5780 5779 5778 5779 5781 5781 5781 5781 5781 5781 5782 5783 5785 5787
5761 5761 5761 5762 5763 5764 5765 5766 5765 5766 5766 5767 5768 5770 5771 5771 5772 5773 5774 5774 5776 5776 5778 5782 5780 5777 5778 5777 5776 5776 5775 5775 5778 5780 5780 5781 5782 5782 5782 5782 5783 5783
5757 5757 5757 5757 5758 5758 5758 5759 5759 5759 5761 5762 5763 5765 5766 5766 5767 5770 5770 5771 5773 5773 5774 5778 5775 5771 5772 5773 5771 5772 5772 5772 5775 5778 5779 5780 5781 5781 5781 5782 5781 5781
5754 5755 5754 5754 5754 5753 5753 5753 5754 5755 5756 5756 5758 5760 5762 5763 5764 5766 5767 5768 5771 5772 5771 5771 5767 5764 5766 5768 5768 5769 5768 5770 5773 5775 5777 5779 5779 5780 5780 5780 5780 5780
5749 5750 5750 5750 5750 5749 5749 5749 5750 5750 5751 5751 5752 5755 5757 5759 5761 5763 5764 5765 5767 5769 5768 5764 5760 5758 5759 5761 5763 5764 5766 5768 5771 5773 5774 5776 5777 5778 5778 5778 5778 5778
5743 5744 5744 5744 5746 5745 5745 5746 5747 5747 5748 5749 5748 5748 5750 5752 5754 5757 5760 5761 5762 5762 5762 5758 5754 5752 5753 5756 5758 5760 5763 5767 5770 5770 5770 5771 5773 5774 5774 5775 5775 5775
5737 5738 5738 5738 5739 5739 5740 5743 5744 5744 5746 5745 5744 5743 5744 5745 5747 5750 5751 5753 5753 5753 5753 5752 5749 5747 5748 5751 5753 5755 5760 5765 5768 5767 5766 5767 5768 5769 5771 5772 5771 5769
5733 5733 5733 5733 5733 5734 5735 5737 5739 5740 5740 5740 5740 5740 5739 5738 5740 5741 5740 5740 5739 5740 5742 5743 5742 5742 5742 5745 5748 5750 5754 5760 5763 5762 5762 5763 5763 5765 5766 5768 5766 5762
5729 5728 5729 5729 5730 5730 5731 5732 5732 5733 5734 5734 5735 5735 5734 5733 5734 5734 5732 5728 5726 5728 5732 5733 5733 5734 5736 5738 5742 5744 5747 5752 5756 5756 5756 5758 5760 5760 5760 5762 5762 5758